Temp
2 2 3 3 3 3 4 1 1 4 4 3 2 3 5 6 6 7 8 8 8 8 8 8 10 9 10 10 10 10 10 11 13 15 16 16 16 16 16 16 15 16 17 17
2 3 3 3 3 3 3 1 2 4 4 2 3 5 5 6 6 7 7 8 8 9 8 8 9 9 10 9 10 10 10 11 13 14 14 15 14 14 15 15 15 16 16 17
2 3 3 3 3 3 3 0 0 1 3 3 3 4 5 5 6 7 8 7 8 7 8 9 8 9 10 9 10 10 11 10 11 13 12 12 13 14 14 15 15 16 16 17
2 2 3 4 3 3 3 2 1 2 1 4 4 4 5 5 6 7 8 7 7 7 7 8 8 9 9 10 10 9 9 9 10 11 11 11 12 13 14 14 15 15 15 15
2 2 3 4 4 3 3 -0 1 1 2 3 3 5 5 5 6 6 7 6 6 7 6 7 7 8 9 9 10 10 8 9 9 11 12 12 12 13 13 14 14 14 15 15
2 2 3 4 3 3 2 1 1 2 3 3 3 4 5 6 6 7 7 6 6 6 7 7 8 8 9 9 9 9 8 9 10 11 11 12 13 13 14 13 13 13 14 13
2 2 3 4 3 3 4 2 2 2 2 3 4 5 5 5 5 5 6 6 6 8 7 7 8 7 8 8 9 10 8 9 10 11 11 11 12 13 14 13 12 12 13 12
2 2 3 3 3 3 2 2 2 2 2 4 4 4 4 5 5 5 5 7 7 6 7 8 8 8 9 9 8 9 9 9 10 10 11 12 13 12 12 12 11 11 10 12
2 2 2 3 4 3 2 3 2 2 2 3 5 4 5 4 4 5 6 6 6 6 6 7 8 9 9 10 9 9 8 9 10 9 10 11 11 11 11 12 11 10 10 10
1 2 2 3 3 4 3 3 2 2 2 3 4 4 5 5 5 5 5 6 6 6 7 7 8 8 9 10 10 9 9 9 9 10 10 11 9 10 11 12 10 8 9 8
1 1 2 3 3 4 3 3 2 2 2 3 4 5 5 5 4 5 5 5 5 6 7 7 8 7 9 9 9 8 9 9 9 10 9 10 7 10 11 8 7 7 6 6
1 1 2 2 3 3 3 3 2 2 2 3 2 3 4 5 5 4 5 5 5 5 5 6 7 7 7 8 10 8 9 8 9 9 9 7 6 6 6 7 6 5 5 5
1 1 1 2 3 4 3 3 2 1 2 2 2 4 4 5 4 4 5 4 6 6 5 5 5 6 6 8 9 8 8 6 7 8 7 6 5 4 5 5 4 3 3 4
1 1 2 2 3 4 3 3 2 2 2 2 4 4 4 6 5 4 4 5 5 5 5 5 4 5 7 8 8 8 6 6 5 6 5 5 4 3 2 2 2 2 1 1
1 1 2 2 3 4 4 3 3 2 3 3 4 3 6 5 5 3 3 3 4 4 4 5 5 6 6 7 8 6 4 3 5 5 3 4 3 1 1 0 0 0 1 -1
1 1 2 2 3 3 3 1 2 2 2 3 3 3 3 4 3 2 2 3 3 4 5 4 5 5 6 7 7 4 3 2 2 3 2 2 1 0 -0 -1 -1 -2 -2 -2
1 2 2 3 4 3 2 3 3 2 2 3 3 3 3 4 2 2 3 3 5 5 5 5 5 6 7 6 6 3 1 1 1 1 2 1 1 0 -1 -1 -1 -2 -3 -4
1 2 2 3 3 3 2 3 3 2 2 3 3 3 4 5 4 5 4 4 4 5 6 5 6 6 5 5 2 0 0 1 -0 -0 1 1 0 -0 -1 -1 -1 -2 -3 -3
1 2 2 3 3 1 2 3 2 3 3 3 3 3 4 4 4 4 4 4 4 5 6 6 6 5 4 1 0 -1 -2 -2 -2 -1 -1 -1 -1 -2 -3 -3 -2 -3 -3 -4
1 2 2 1 1 3 3 1 2 2 3 3 3 3 3 4 4 5 5 5 6 6 6 4 5 2 -1 -2 -2 -3 -3 -3 -2 -0 -1 -2 -2 -3 -4 -4 -5 -4 -5 -6
2 0 1 2 3 3 2 2 3 3 3 3 4 4 4 4 5 5 5 5 5 6 6 6 3 2 -1 -3 -4 -4 -4 -5 -5 -5 -4 -4 -4 -4 -4 -5 -6 -7 -8 -9
2 2 2 2 3 3 3 3 3 3 4 2 3 4 5 4 3 4 4 6 5 6 4 4 2 -2 -3 -3 -4 -5 -5 -6 -6 -7 -7 -7 -7 -7 -7 -7 -8 -9 -11 -12
3 2 2 3 1 4 3 3 4 3 2 3 4 4 4 3 4 4 5 5 6 4 2 -0 -2 -3 -3 -4 -5 -6 -6 -7 -8 -8 -9 -10 -11 -11 -11 -12 -12 -13 -13 -13
1 2 0 2 1 -1 -1 1 3 1 2 3 4 3 4 3 4 3 5 3 5 3 2 -1 -3 -4 -5 -5 -6 -7 -9 -10 -11 -12 -12 -12 -13 -13 -13 -13 -13 -13 -14 -13
-0 0 -1 -4 -4 -3 -3 -2 1 -0 1 2 3 2 3 1 2 -0 2 3 0 -1 -1 -4 -4 -5 -6 -7 -8 -9 -10 -12 -12 -13 -13 -13 -13 -13 -14 -14 -13 -13 -13 -14
-2 -3 -2 -3 -3 -3 -2 -2 -0 -1 -0 1 1 1 0 -1 -2 -0 -3 1 -0 -4 -6 -5 -6 -7 -8 -9 -10 -11 -12 -12 -13 -13 -13 -13 -13 -14 -14 -14 -14 -14 -14 -14
-3 -5 -6 -7 -7 -6 -4 -4 -3 -2 -0 0 1 0 -1 -1 -2 -3 -5 -4 -6 -7 -6 -7 -7 -8 -10 -11 -11 -11 -12 -12 -12 -12 -13 -13 -13 -13 -13 -13 -14 -14 -14 -14
Height
797 797 796 795 793 790 790 789 793 786 784 789 791 791 784 776 769 762 759 755 750 744 742 736 727 727 726 726 725 722 721 715 705 699 694 694 696 699 701 706 711 706 703 698
795 794 793 793 792 791 792 793 791 787 786 796 789 782 781 777 771 766 762 758 754 747 746 745 737 733 728 730 726 725 723 719 704 701 703 699 702 702 700 703 705 700 705 697
793 792 791 791 791 791 793 796 799 793 790 792 792 787 781 776 770 767 763 763 756 754 747 744 742 739 732 731 728 726 723 723 718 702 709 714 707 703 704 700 700 697 693 692
789 789 789 788 788 790 793 795 800 799 802 791 790 788 785 779 773 766 763 761 764 763 756 747 743 739 735 731 730 731 728 726 723 715 715 714 709 704 703 700 699 696 696 695
786 786 786 786 786 789 792 798 798 800 796 793 790 785 781 781 776 771 765 766 763 761 761 756 751 744 741 737 731 728 735 727 729 716 710 710 706 701 701 700 698 698 694 695
783 783 783 784 783 786 791 792 794 795 794 792 790 786 780 776 775 768 765 767 766 758 753 751 745 741 739 735 736 734 733 727 720 711 710 708 703 697 695 699 702 701 698 703
780 780 780 781 781 782 786 788 791 794 792 791 786 782 781 779 777 778 767 767 766 753 749 742 734 735 733 733 730 731 735 732 724 713 711 715 702 695 692 696 703 707 706 706
776 776 777 778 779 780 782 785 789 790 792 785 783 782 781 778 775 773 768 762 758 755 750 740 735 728 728 724 727 727 729 729 724 719 713 704 697 701 701 699 709 712 715 710
772 772 773 774 775 777 778 780 784 788 787 781 776 777 776 777 774 770 764 759 757 755 754 747 739 727 726 719 721 721 728 728 724 724 715 711 707 707 706 703 708 717 718 715
767 768 769 770 772 773 773 774 778 784 783 778 776 776 773 773 772 771 766 763 759 757 752 745 741 734 728 723 718 723 727 726 724 720 719 706 716 713 707 705 721 726 725 727
763 764 765 766 767 768 768 768 771 776 777 774 772 771 772 771 771 769 767 766 763 758 752 751 742 741 732 730 726 730 724 725 723 723 724 720 725 713 705 728 733 732 734 735
758 760 761 762 763 764 765 764 766 770 774 771 769 768 767 767 766 770 769 769 768 767 763 758 750 743 741 736 721 730 728 732 727 725 724 734 733 732 732 731 736 741 740 742
753 755 756 757 758 760 761 759 762 768 771 769 767 761 756 759 760 765 770 768 764 764 766 764 759 749 746 735 730 733 732 738 732 729 733 737 741 742 741 743 745 748 748 748
748 749 751 753 754 755 757 756 758 764 768 768 758 754 753 751 753 756 760 763 764 764 764 764 765 758 747 739 737 735 741 739 741 736 740 742 747 750 751 753 752 753 756 756
742 744 746 748 749 750 751 752 753 757 763 761 756 752 745 746 748 751 756 761 764 766 767 764 759 750 747 740 735 743 751 753 745 743 748 747 755 759 760 759 761 760 759 759
737 738 740 743 744 746 746 752 752 754 759 762 759 749 745 744 746 750 754 758 763 764 763 761 755 752 744 741 738 754 756 759 759 755 755 753 758 760 766 766 766 766 764 764
731 733 735 737 739 740 744 745 743 748 757 760 756 749 745 744 747 752 755 757 757 759 758 753 749 745 743 746 740 759 762 763 763 761 759 757 761 765 768 767 767 767 768 769
726 728 729 732 734 737 740 741 743 749 755 757 755 750 745 742 744 745 749 751 754 753 751 748 746 744 745 745 761 767 767 766 767 766 762 763 766 768 769 768 768 768 770 772
721 722 724 726 729 734 736 740 745 749 752 750 751 748 744 740 739 742 745 747 750 748 745 744 746 747 748 761 766 771 772 771 770 770 769 769 770 772 773 773 772 771 773 775
716 719 720 724 726 731 736 743 747 748 747 746 743 741 741 739 736 739 740 742 739 738 740 745 743 758 771 773 775 777 778 778 774 770 772 773 772 776 776 777 778 778 779 780
708 711 715 719 724 728 734 737 738 743 742 739 733 734 734 736 735 734 736 735 735 733 732 735 747 757 770 777 779 781 782 783 783 782 781 780 779 779 778 780 782 784 784 784
699 705 711 717 720 724 727 729 733 733 728 731 729 729 729 732 735 734 734 727 731 724 736 739 751 772 777 779 783 785 787 787 786 784 784 784 784 784 784 786 787 788 788 788
692 702 708 710 718 713 717 722 719 724 725 724 725 724 728 732 733 732 726 723 722 731 742 760 771 777 781 783 786 789 790 790 789 789 789 789 790 789 790 792 794 793 793 794
687 697 710 708 717 724 723 715 713 721 720 719 721 726 724 730 730 732 722 732 726 736 743 764 776 782 786 788 789 790 793 794 794 794 794 795 795 796 796 798 798 797 798 797
692 697 714 728 727 728 727 723 720 724 723 721 724 729 730 737 735 745 737 736 753 759 764 781 783 787 789 791 793 794 797 798 798 799 801 802 802 803 804 803 802 802 801 800
701 714 721 725 725 728 726 727 725 727 726 726 728 735 740 749 753 749 765 749 755 776 784 785 788 792 794 796 797 799 801 802 803 804 805 805 805 805 806 806 805 804 804 803
714 727 729 732 736 736 734 733 732 731 729 732 733 738 749 753 759 768 778 775 783 787 788 791 793 795 798 799 800 802 804 805 805 806 807 807 807 808 808 808 810 809 808 807
Wind_Speed
7 8 8 7 9 9 7 1 2 8 4 3 1 1 4 7 5 3 3 3 5 5 8 7 8 8 6 10 7 4 3 1 2 3 2 0 3 7 9 4 4 4 6 7
7 8 8 7 6 4 3 1 1 4 3 2 2 4 4 4 5 5 6 4 6 6 4 4 4 6 4 8 6 5 4 1 2 4 2 3 2 1 3 3 1 9 6 2
8 9 9 8 4 1 2 1 3 3 2 2 2 4 4 6 4 3 4 4 4 6 4 2 4 5 3 7 6 12 1 1 2 1 3 2 1 1 1 3 4 4 7 5
9 9 9 8 4 7 4 1 0 1 2 0 3 3 3 8 6 3 6 1 8 7 4 5 3 2 7 6 6 5 4 2 2 7 4 4 4 5 2 3 1 5 2 2
9 9 8 5 5 11 2 3 2 1 2 3 3 2 2 2 6 2 4 5 13 8 3 4 9 10 5 3 4 4 4 1 1 2 5 4 4 6 6 7 4 7 9 7
10 10 8 4 10 16 3 3 2 2 2 2 0 2 3 4 7 4 5 5 13 10 3 10 14 12 11 9 8 3 3 3 2 1 2 6 5 5 8 3 2 2 4 3
11 10 8 5 7 19 9 6 5 2 3 3 3 3 4 9 8 9 13 11 6 4 12 13 10 10 11 10 11 8 4 4 3 2 3 2 5 4 6 8 6 7 3 6
12 11 9 8 6 17 16 11 5 3 2 5 6 10 9 8 7 7 7 9 5 7 6 5 7 1 3 4 9 11 11 2 3 1 3 3 3 3 3 1 1 5 3 6
13 12 11 10 9 9 26 16 15 2 2 5 6 2 3 4 3 4 3 4 5 3 1 1 3 3 3 2 1 7 6 7 3 1 3 1 2 1 5 2 1 4 4 7
14 12 12 12 11 10 24 11 25 5 2 4 4 3 2 2 2 2 3 5 5 3 3 2 2 2 3 3 4 1 2 1 6 5 2 3 5 9 3 2 2 6 8 9
15 14 12 12 12 10 16 8 25 14 3 3 5 5 5 3 1 3 3 4 2 2 2 1 1 2 2 3 2 1 1 2 2 3 3 6 10 2 1 6 8 8 10 10
16 15 14 13 13 13 11 6 27 25 3 2 3 9 16 16 13 1 1 1 3 1 3 3 4 2 3 3 2 3 1 1 3 2 1 4 7 10 10 9 7 6 9 8
16 16 14 14 13 14 12 11 19 11 1 4 4 9 25 24 23 18 5 2 2 2 4 2 3 3 1 2 1 2 1 3 2 3 5 7 10 12 13 12 12 9 10 9
17 17 15 15 15 14 11 17 24 12 2 2 5 4 8 8 15 21 25 10 1 2 2 2 2 3 1 2 3 2 3 5 5 2 3 5 12 9 10 11 10 10 10 10
17 18 17 16 15 14 13 23 23 23 4 2 3 10 19 17 14 17 16 13 7 3 2 3 3 3 2 2 2 2 3 3 3 2 5 4 6 8 9 10 8 8 8 10
18 18 18 18 17 14 11 0 15 25 13 1 3 3 3 5 8 11 10 9 3 3 3 3 3 4 2 1 1 4 4 4 6 2 5 10 10 10 8 8 8 10 10 10
19 19 19 19 15 20 4 3 4 30 18 2 3 3 2 3 5 2 2 9 2 3 2 3 2 2 1 1 2 6 6 6 7 8 3 7 9 5 7 8 11 14 14 13
20 21 17 16 12 16 5 6 8 27 6 3 2 3 2 7 2 3 3 5 2 3 2 2 2 1 0 2 5 4 4 4 8 9 9 10 7 8 9 9 8 10 10 9
21 19 13 11 6 4 8 11 29 15 3 4 3 2 3 2 3 2 2 3 2 1 3 2 1 1 2 3 6 6 8 6 6 4 8 8 9 8 8 8 8 9 8 8
19 12 6 2 8 26 26 4 2 2 1 2 3 2 2 3 1 4 4 3 3 4 4 3 2 2 7 7 9 7 7 8 9 6 3 6 5 5 7 8 7 6 6 7
9 3 3 9 33 7 2 3 3 3 3 4 4 6 3 2 2 1 2 3 3 4 3 5 3 1 3 7 9 8 7 8 7 6 6 6 6 4 4 6 8 8 8 8
16 12 15 9 3 2 4 4 4 5 5 3 4 4 3 2 2 2 3 3 4 3 3 3 3 2 7 7 8 7 7 7 8 9 8 8 8 7 7 7 7 8 8 8
22 5 4 3 1 4 8 8 4 4 3 4 3 3 3 2 2 3 2 3 2 3 2 2 2 6 5 5 5 7 8 8 9 10 10 11 12 13 11 10 8 9 12 10
3 4 5 1 2 2 2 2 4 2 1 4 2 2 1 1 2 1 1 2 1 2 2 2 2 6 6 5 5 5 6 8 8 8 10 11 11 12 13 11 10 12 11 11
4 3 3 1 1 1 1 0 2 2 1 2 3 3 2 2 1 2 1 2 2 2 2 2 3 6 6 5 5 6 6 5 7 7 8 9 10 11 11 11 12 13 14 14
3 6 4 1 3 2 2 3 2 3 2 2 2 2 3 3 1 3 2 0 1 2 2 3 5 5 5 6 6 7 7 8 8 8 9 10 11 11 10 11 12 12 13 14
4 3 3 3 3 2 2 2 2 4 1 2 1 3 1 2 3 2 2 1 2 3 3 3 5 6 6 7 9 8 8 9 10 10 10 10 9 9 9 11 9 11 12 14
Wind_Direction
298 309 319 330 344 359 356 22 49 346 356 38 88 355 297 299 301 329 314 295 288 350 332 346 17 18 32 10 336 349 358 333 231 217 347 213 174 187 198 217 192 226 263 276
293 312 319 317 329 359 342 40 311 350 28 50 2 332 295 282 313 330 326 316 1 317 312 336 356 347 351 6 12 3 347 30 193 144 109 46 54 248 205 129 145 225 240 220
293 303 309 302 285 235 81 47 26 330 51 166 2 339 308 318 292 284 292 325 1 345 323 286 312 336 323 329 11 343 273 5 309 209 82 23 246 209 288 199 187 198 239 266
286 297 306 310 242 189 140 25 333 171 322 197 303 298 279 309 351 321 351 78 11 338 310 319 354 333 333 331 8 1 358 159 279 290 259 224 249 225 214 230 195 214 161 231
279 299 304 308 198 175 133 136 143 174 293 283 324 288 271 336 328 296 312 359 334 329 277 301 308 317 321 279 329 349 358 5 222 252 248 262 252 247 236 256 260 258 272 286
275 292 292 285 195 172 153 142 133 109 288 296 333 246 292 335 353 288 266 339 325 317 289 308 282 264 257 257 285 317 311 306 333 78 217 291 243 244 209 161 109 331 281 14
266 288 279 272 205 201 187 169 123 164 243 212 219 256 291 295 296 283 288 298 272 270 315 296 265 247 245 243 242 227 280 335 298 290 319 200 14 338 163 120 76 35 64 32
257 283 265 267 240 218 198 174 155 166 231 228 263 251 265 285 287 275 269 279 252 313 304 328 327 104 213 241 232 223 209 220 284 333 294 289 160 38 85 4 132 47 14 22
254 277 263 268 263 239 204 204 179 168 170 231 244 248 229 267 271 301 260 303 313 335 333 333 316 337 329 35 138 9 183 221 258 242 279 328 75 248 357 158 176 48 17 18
252 273 264 263 265 261 201 203 205 164 220 252 187 197 219 210 253 266 308 330 332 335 358 288 302 307 322 323 328 97 115 138 214 229 291 288 13 315 314 214 89 47 53 44
253 266 265 261 262 260 219 211 198 181 209 257 208 212 220 256 204 267 327 347 34 327 304 296 296 278 333 289 349 294 25 163 217 196 230 260 353 310 127 109 72 63 50 47
252 261 263 263 262 261 251 198 201 202 207 271 267 257 255 244 237 150 288 254 353 288 353 2 312 309 314 337 331 26 30 29 317 255 38 50 35 76 64 87 87 52 60 48
248 259 264 260 265 264 261 189 173 176 176 264 236 240 254 252 244 232 245 249 207 203 182 336 308 281 284 326 337 314 153 43 252 266 79 69 84 73 73 74 81 66 55 52
247 259 258 259 266 265 253 186 182 170 136 255 273 261 258 257 232 227 215 219 89 26 26 327 266 277 230 271 281 303 10 321 317 89 90 90 53 50 69 72 75 72 61 50
248 258 258 262 268 262 267 203 194 187 162 249 284 303 274 258 233 208 205 210 221 253 280 247 245 266 271 256 271 55 22 354 358 10 331 73 68 61 64 70 69 60 64 58
250 253 261 262 260 260 138 52 184 191 191 222 283 285 302 28 185 167 175 186 168 190 204 224 237 274 255 304 288 65 65 51 14 344 50 91 98 77 72 83 80 73 68 55
246 249 256 259 249 187 160 201 206 188 173 165 271 282 265 125 117 113 136 169 183 190 209 237 260 258 88 310 249 92 78 54 29 24 159 76 53 83 83 81 81 77 72 62
244 252 258 240 201 186 174 170 156 157 130 194 240 264 313 186 143 142 157 164 178 196 228 243 236 243 153 215 92 65 29 84 42 28 45 84 91 71 58 58 72 75 65 64
248 260 236 198 173 140 160 168 161 163 153 185 186 207 236 159 160 141 158 149 168 216 218 227 211 185 237 52 100 67 34 34 351 44 57 64 64 55 48 50 52 65 65 67
242 254 173 172 182 133 125 74 147 172 223 220 224 177 245 166 140 176 159 178 186 191 203 125 217 120 91 80 80 70 51 37 14 185 35 31 48 52 51 54 54 56 66 70
209 157 139 158 141 122 133 149 168 158 209 212 224 194 169 188 173 229 207 179 179 208 175 188 193 176 112 99 79 62 51 52 57 70 60 52 44 38 60 60 57 63 69 73
167 128 125 161 139 136 156 171 170 195 211 185 189 195 201 151 127 184 190 205 179 193 120 142 168 75 104 98 85 72 64 60 58 52 56 55 61 56 71 74 70 69 76 82
128 127 134 186 209 151 177 175 173 194 186 176 182 152 136 132 191 237 224 172 178 103 68 89 67 123 106 103 92 76 66 70 71 67 65 67 65 65 72 78 77 89 85 90
109 136 118 186 173 214 188 133 140 142 145 136 113 100 125 101 172 343 235 2 188 100 164 141 113 110 97 85 80 88 67 68 75 69 72 75 75 71 74 80 93 97 89 88
83 73 90 99 150 72 251 21 95 32 333 104 112 81 70 28 89 11 294 64 83 24 95 120 110 104 102 96 90 92 90 79 75 77 84 89 91 89 82 82 90 96 97 93
73 50 106 114 89 37 49 20 79 21 15 74 49 115 75 55 69 55 59 333 140 133 100 117 107 92 92 99 99 103 107 105 104 101 103 104 99 95 93 89 82 82 86 86
57 48 40 76 83 94 76 11 2 319 78 107 118 73 72 95 72 89 12 98 121 142 107 86 107 118 119 114 110 116 120 116 110 110 107 104 106 105 97 87 83 85 84 84